Change the Weather History Date:

Sunday, March 31, 2013

  Actual Average Record
Temperature  
Mean Temperature 62 °F -  
Max Temperature 69 °F 66 °F 69 °F (2006)
Min Temperature 54 °F 46 °F 35 °F (1997)
Degree Days  
Heating Degree Days 4    
Growing Degree Days 12 (Base 50)    
Moisture  
Dew Point 47 °F    
Average Humidity 60    
Maximum Humidity 88    
Minimum Humidity 32    
Precipitation  
Precipitation 0.00 in 0.05 in - ()
Sea Level Pressure  
Sea Level Pressure 29.74 in    
Wind  
Wind Speed 9 mph ()    
Max Wind Speed 18 mph    
Max Gust Speed -    
Visibility 7.4 miles    
Events      
Averages and records for this station are not official NWS values.
T = Trace of Precipitation, MM = Missing Value Source: Averaged Metar Reports

Daily Weather History Graph

Daily Weather History Graph

Search for Another Location

Airport or City:

Trip Planner

Search our weather history database for the weather conditions in past years. The results will help you decide how hot, cold, wet, or windy it might be!

Date:

Astronomy

Mar. 31, 2013 Rise Set
Actual Time 7:34 AM CEST 8:12 PM CEST
Civil Twilight 7:07 AM CEST 8:39 PM CEST
Nautical Twilight 6:35 AM CEST 9:11 PM CEST
Astronomical Twilight 6:03 AM CEST 9:44 PM CEST
Moon 12:00 AM CET (3/31) 10:09 AM CEST (3/31)
Length of Visible Light 13h 31m
Length of Day
12h 37m
Waning Gibbous, 80% of the Moon is Illuminated
Mar 31
Waning Gibbous
Apr 3
Last Quarter
Apr 10
New
Apr 18
First Quarter
Apr 25
Full

Hourly Weather History & Observations

Time (CEST) Temp. Dew Point Humidity Pressure Visibility Wind Dir Wind Speed Gust Speed Precip Events Conditions
12:00 AM 62.6 °F 42.8 °F 48% 29.80 in - NW 10.4 mph - N/A   Clear
12:30 AM 62.6 °F 41.0 °F 45% 29.80 in - NW 10.4 mph - N/A   Clear
1:00 AM 61 °F 39 °F 32% 29.82 in 19 mi NW 13.8 mph - -   Scattered Clouds
1:00 AM 62.6 °F 42.8 °F 48% 29.80 in 6.2 mi NNW 13.8 mph - N/A   Partly Cloudy
1:30 AM 62.6 °F 42.8 °F 48% 29.80 in 6.2 mi NW 13.8 mph - N/A   Partly Cloudy
3:00 AM 60.8 °F 42.8 °F 52% 29.80 in 6.2 mi West 6.9 mph - N/A   Partly Cloudy
3:30 AM 60.8 °F 42.8 °F 52% 29.80 in 6.2 mi WNW 8.1 mph - N/A   Partly Cloudy
4:00 AM 60.8 °F 44.6 °F 55% 29.77 in 6.2 mi NNW 11.5 mph - N/A   Partly Cloudy
4:30 AM 59.0 °F 44.6 °F 59% 29.80 in 6.2 mi West 8.1 mph - N/A   Partly Cloudy
5:00 AM 59.0 °F 44.6 °F 59% 29.77 in 6.2 mi West 8.1 mph - N/A   Partly Cloudy
5:30 AM 59.0 °F 44.6 °F 59% 29.77 in 6.2 mi West 9.2 mph - N/A   Partly Cloudy
6:00 AM 59.0 °F 42.8 °F 55% 29.77 in 6.2 mi WNW 4.6 mph - N/A   Partly Cloudy
6:30 AM 57.2 °F 42.8 °F 59% 29.77 in 6.2 mi West 4.6 mph - N/A   Partly Cloudy
7:00 AM 57.2 °F 42.8 °F 59% 29.77 in 6.2 mi Variable 1.2 mph - N/A   Partly Cloudy
7:30 AM 57.2 °F 41.0 °F 55% 29.77 in 6.2 mi NW 9.2 mph - N/A   Partly Cloudy
8:00 AM 57 °F 38 °F 37% 29.78 in 16 mi WNW 8.1 mph - -   Scattered Clouds
8:00 AM 59.0 °F 41.0 °F 51% 29.77 in - WNW 9.2 mph - N/A   Clear
8:30 AM 59.0 °F 42.8 °F 55% 29.77 in - Variable 1.2 mph - N/A   Clear
9:00 AM 60.8 °F 42.8 °F 52% 29.77 in - WSW 3.5 mph - N/A   Clear
9:30 AM 64.4 °F 42.8 °F 45% 29.77 in - NW 8.1 mph - N/A   Clear
10:00 AM 64.4 °F 42.8 °F 45% 29.77 in - Variable 1.2 mph - N/A   Clear
10:30 AM 66.2 °F 42.8 °F 43% 29.77 in - NW 8.1 mph - N/A   Clear
11:00 AM 68.0 °F 41.0 °F 37% 29.74 in - NW 4.6 mph - N/A   Clear
11:30 AM 68.0 °F 42.8 °F 40% 29.77 in - NNW 13.8 mph - N/A   Clear
12:00 PM 69.8 °F 41.0 °F 35% 29.77 in - NW 13.8 mph - N/A   Clear
12:30 PM 66.2 °F 51.8 °F 60% 29.77 in 6.2 mi SW 11.5 mph - N/A   Partly Cloudy
1:00 PM 64.4 °F 51.8 °F 64% 29.77 in 6.2 mi WSW 15.0 mph - N/A   Partly Cloudy
1:30 PM 64.4 °F 50.0 °F 59% 29.77 in 6.2 mi WSW 16.1 mph - N/A   Partly Cloudy
2:00 PM 65 °F 48 °F 44% 29.76 in 19 mi WSW 16.1 mph - -   Scattered Clouds
2:00 PM 64.4 °F 51.8 °F 64% 29.74 in 6.2 mi WSW 15.0 mph - N/A   Partly Cloudy
2:30 PM 66.2 °F 50.0 °F 56% 29.74 in 6.2 mi WSW 18.4 mph - N/A   Partly Cloudy
3:00 PM 68.0 °F 48.2 °F 49% 29.74 in 6.2 mi WSW 16.1 mph - N/A   Partly Cloudy
3:30 PM 68.0 °F 48.2 °F 49% 29.74 in 6.2 mi SW 16.1 mph - N/A   Partly Cloudy
4:00 PM 66.2 °F 46.4 °F 49% 29.74 in 6.2 mi SW 15.0 mph - N/A   Partly Cloudy
4:30 PM 64.4 °F 51.8 °F 64% 29.71 in 6.2 mi SW 15.0 mph - N/A   Partly Cloudy
5:00 PM 64.4 °F 51.8 °F 64% 29.71 in 6.2 mi SW 12.7 mph - N/A   Partly Cloudy
5:30 PM 66.2 °F 50.0 °F 56% 29.71 in 6.2 mi SW 11.5 mph - N/A   Partly Cloudy
6:00 PM 62.6 °F 51.8 °F 68% 29.68 in 6.2 mi SSW 9.2 mph - N/A   Partly Cloudy
6:30 PM 62.6 °F 51.8 °F 68% 29.68 in 6.2 mi SSW 10.4 mph - N/A   Partly Cloudy
7:00 PM 60.8 °F 51.8 °F 72% 29.68 in 6.2 mi SSW 9.2 mph - N/A   Partly Cloudy
7:30 PM 60.8 °F 53.6 °F 77% 29.68 in 6.2 mi SSW 8.1 mph - N/A   Partly Cloudy
8:00 PM 59 °F 50 °F 64% 29.71 in 19 mi SSW 9.2 mph - -   Scattered Clouds
8:00 PM 60.8 °F 53.6 °F 77% 29.68 in 6.2 mi SSW 8.1 mph - N/A   Partly Cloudy
8:30 PM 59.0 °F 53.6 °F 82% 29.68 in 6.2 mi SSW 5.8 mph - N/A   Partly Cloudy
9:00 PM 59.0 °F 53.6 °F 82% 29.68 in 6.2 mi Variable 1.2 mph - N/A   Partly Cloudy
9:30 PM 59.0 °F 55.4 °F 88% 29.68 in 6.2 mi Calm Calm - N/A   Partly Cloudy
10:00 PM 59.0 °F 55.4 °F 88% 29.68 in 6.2 mi South 2.3 mph - N/A   Partly Cloudy
10:30 PM 59.0 °F 53.6 °F 82% 29.68 in 6.2 mi Calm Calm - N/A   Partly Cloudy
11:00 PM 57.2 °F 53.6 °F 88% 29.68 in 6.2 mi Calm Calm - N/A   Partly Cloudy
11:30 PM 57.2 °F 53.6 °F 88% 29.65 in 6.2 mi Calm Calm - N/A   Partly Cloudy
12:00 AM 57.2 °F 53.6 °F 88% 29.65 in 6.2 mi Calm Calm - N/A   Partly Cloudy
12:30 AM 59.0 °F 55.4 °F 88% 29.65 in 6.2 mi SSW 4.6 mph - N/A   Scattered Clouds